www.pogodaiklimat.ru

Погода и климат >> Архив погоды >> Чехия >> АЭС Дукованы


ПОГОДА на АЭС Дукованы

  • Прогноз погоды на АЭС Дукованы
  • Монитор погоды на АЭС Дукованы

АРХИВ ПОГОДЫ на АЭС Дукованы

Время (UTC), дата Ветер
(напр.,м/с)
 
Видим.   Явления Облачность Т
(С)
Тd
(С)
f
(%)
Тe
(С)
Тes
(С)
Комфортность P
(гПа)
Po
(гПа)
Тmin
(С)
Tmax
(С)
R
(мм)
R24
(мм)
S
(см)
19 18.08 Ю 6 35 км ясно +26.5 +14.9 49 +29 +29 жарко 1009.9 965.1
20 18.08 Ю 5 35 км ясно +25.3 +15.0 53 +28 +28 жарко 1010.3 965.4
21 18.08 Ю 5 35 км н/о +24.4 +14.7 55 +27 +27 жарко 1010.5 965.4
22 18.08 ЮВ 5 30 км н/о +23.2 +14.8 59 +27 +27 душно 1010.7 965.4
23 18.08 В 4 30 км н/о +21.2 +15.1 68 +24 +24 комфорт 1011.0 965.4
00 19.08 В 4 30 км н/о +20.4 +15.8 75 +23 +23 комфорт 1011.1 965.4 0.0
01 19.08 В 3 30 км н/о +19.0 +15.4 80 +21 +21 комфорт 1011.6 965.7
02 19.08 С 4 30 км н/о +18.2 +15.5 84 +18 +18 1012.2 966.1
03 19.08 СВ 4 29 км н/о +18.3 +16.0 86 +19 +19 1012.9 966.8
04 19.08 С 5 27 км н/о +17.9 +15.7 87 +17 +17 1013.3 967.1
05 19.08 С 4 25 км 9/0
[Ac As]
+18.5 +15.9 85 +19 +19 1014.4 968.3
06 19.08 СЗ 7 30 км 5/0
[Ci sp]
+21.1 +15.9 72 +24 +25 комфорт 1015.1 969.3 +17.5
07 19.08 СЗ 9
{11}
35 км 5/0
[Ac cast Ci sp]
+23.4 +14.7 58 +27 +28 душно 1014.9 969.5
08 19.08 С 11
{13}
35 км 5/0
[Ci sp]
+25.1 +13.3 48 +27 +27 жарко 1015.1 969.9
09 19.08 С 8
{13}
35 км 6/0
[Ac cast Ci sp]
+26.0 +12.8 44 +28 +29 жарко 1015.0 969.9
10 19.08 СЗ 6 30 км 6/0
[Ac As]
+27.0 +12.6 41 +29 +32 жарко 1015.4 970.4
11 19.08 СЗ 8 30 км 8/5 1500 м
[Cu med, cong Ac As]
+26.3 +12.0 41 +28 +28 жарко 1015.8 970.7
12 19.08 СЗ 6-11
{13}
30 км 6/3 1500 м
[Cu med, cong Ac cuf]
+27.3 +12.5 40 +29 +31 жарко 1015.7 970.8
13 19.08 З 6 35 км 6/3 1500 м
[Cu med, cong Ac cuf]
+28.6 +12.5 37 +30 +32 жарко 1015.5 970.8
14 19.08 З 7 35 км 8/5 1500 м
[Cu med, cong Ac cuf]
+27.5 +13.1 41 +29 +30 жарко 1016.1 971.2
15 19.08 СЗ 9 35 км 8/0
[Ac As]
+26.5 +13.3 44 +28 +29 жарко 1016.2 971.1
16 19.08 С 5 35 км 8/0
[Ac As]
+25.8 +13.6 47 +28 +28 жарко 1016.3 971.1
17 19.08 С 5 35 км 9/0
[Ac As]
+24.8 +14.0 51 +27 +27 жарко 1016.6 971.3
18 19.08 С 4
{11}
35 км 9/0
[Ac As]
+23.7 +14.1 55 +26 +26 жарко 1017.2 971.7 +29.7
19 19.08 СЗ 3 35 км 9/0
[Ac As]
+22.9 +13.7 56 +26 +26 жарко 1018.1 972.4
20 19.08 30 км в посл. час дождь 9/9 1500 м
[Sc]
+21.5 +14.9 66 1018.7 972.8
21 19.08 В 1 30 км {ливн. осадки, дождь} н/о +20.6 +15.1 71 +25 +25 комфорт 1019.0 973.0
22 19.08 35 км н/о +20.6 +14.9 70 1019.0 973.0
23 19.08 30 км н/о +19.3 +14.9 76 1019.0 972.8
00 20.08 нст 2 26 км {ливн. осадки, дождь} н/о +18.2 +14.9 81 +19 +19 1019.4 973.0 0.0
01 20.08 30 км н/о +17.5 +14.7 84 1019.7 973.1
02 20.08 СЗ 2 30 км н/о +17.7 +14.9 84 +18 +18 1019.8 973.3
03 20.08 С 4 30 км н/о +17.9 +14.8 82 +18 +18 1019.7 973.2
04 20.08 С 2 30 км н/о +17.6 +14.6 83 +18 +18 1020.0 973.4
05 20.08 З 4 25 км 8/0
[Ac As]
+16.8 +14.8 88 +16 +16 1020.9 974.2
06 20.08 В 2 30 км 8/0
[Ci fib]
+20.0 +15.6 76 +23 +25 комфорт 1020.0 973.8 +16.8 0.0
07 20.08 В 4 35 км 8/0
[Ci fib]
+21.9 +15.7 68 +26 +29 душно 1019.9 974.0
08 20.08 СВ 4 35 км 8/0
[Ci fib]
+23.5 +15.8 62 +27 +31 душно 1019.5 973.9
09 20.08 В 4 35 км 8/3 1000 м
[Cu hum Ci fib]
+23.7 +16.0 62 +27 +31 жарко 1019.5 973.9
10 20.08 В 3 30 км 9/4 1000 м
[Cu hum Ac As]
+24.3 +16.0 60 +28 +30 душно 1019.4 973.9
11 20.08 В 4 30 км 8/8 1200 м
[Cu Sc]
+24.3 +16.3 61 +28 +30 душно 1019.0 973.5
12 20.08 СВ 4 35 км 8/8 1200 м
[Cu Sc]
+25.5 +15.8 55 +29 +30 душно 1018.5 973.2
13 20.08 В 5 30 км 9/1 1500 м
[Cu med, cong Ac As]
+25.6 +15.6 54 +29 +31 душно 1018.0 972.8
14 20.08 В 4 30 км 9/4 1380 м
[Cu Sc Ac trans]
+26.0 +15.1 51 +29 +30 душно 1017.8 972.6
15 20.08 ЮВ 5 35 км 9/5 1320 м
[Cu Sc Ac trans]
+26.0 +14.8 50 +29 +29 душно 1017.4 972.2
16 20.08 Ю 4 30 км 9/6 1500 м
[Sc Ac trans Ci fib]
+25.4 +15.7 55 +29 +29 душно 1016.9 971.7
17 20.08 Ю 3 30 км 9/3 1200 м
[Sc Ac trans Cc]
+25.1 +17.6 63 +29 +29 душно 1016.9 971.7
18 20.08 С 2 30 км 9/3 1000 м
[Sc Ac trans Cc]
+23.3 +17.3 69 +29 +29 душно 1017.0 971.5 +26.9
19 20.08 С 2 30 км 9/9 1500 м
[Sc]
+22.5 +17.2 72 +27 +27 душно 1017.0 971.4
20 20.08 С 6 30 км 3/1 1500 м
[Cb calv Ci fib]
+21.2 +16.6 75 +25 +25 комфорт 1016.6 970.8
21 20.08 С 8 24 км н/о +19.4 +16.6 84 +21 +21 комфорт 1017.4 971.3
22 20.08 С 10
{13}
30 км н/о +19.7 +15.6 77 +21 +21 комфорт 1018.0 971.9
23 20.08 СЗ 12
{16}
6000 м дождь н/о +17.7 +15.9 89 +16 +16 1019.7 973.2
00 21.08 З 9-14
{16}
35 км в посл. час дождь {ливн. осадки} н/о +17.5 +16.2 92 +16 +16 1019.9 973.4 2
01 21.08 З 11
{14}
26 км н/о +16.3 +14.4 89 +14 +14 1021.8 975.0
02 21.08 З 12
{14}
30 км н/о +15.2 +13.1 87 +13 +13 1023.2 976.1
03 21.08 СЗ 12
{16}
30 км н/о +14.8 +12.3 85 +12 +12 1024.1 976.9
04 21.08 С 12
{15}
35 км н/о +14.6 +11.8 83 +12 +12 1024.9 977.6
05 21.08 С 9-15
{15}
35 км 9/6 450 м
[Sc Ac trans Ci fib]
+14.5 +11.5 82 +12 +12 1025.7 978.3
06 21.08 СЗ 10
{16}
35 км 9/9 480 м
[Sc]
+14.9 +11.9 82 +12 +12 1027.0 979.6 +14.4 2
07 21.08 С 8
{11}
35 км 9/9 420 м
[Sc]
+15.4 +12.3 82 +13 +14 1027.1 979.8
08 21.08 С 8
{12}
35 км 9/8 450 м
[Sc As trans]
+15.9 +12.3 79 +14 +14 1027.6 980.4
09 21.08 СЗ 10
{12}
35 км 9/6 600 м
[Sc As trans]
+16.0 +11.8 76 +14 +14 1027.6 980.4
10 21.08 С 8
{12}
25 км 9/8 600 м
[Sc As trans]
+16.3 +12.1 76 +15 +15 1027.8 980.6
11 21.08 С 7 28 км 9/9 570 м
[Sc]
+16.2 +11.8 75 +15 +15 1028.1 980.9
12 21.08 С 7
{12}
30 км 9/5 660 м
[Sc Ac As]
+17.1 +11.6 70 +16 +17 1027.6 980.6
13 21.08 С 7 35 км 9/5 840 м
[Sc Ac As]
+18.4 +11.9 66 +18 +19 1027.2 980.4
14 21.08 С 6 35 км 9/6 840 м
[Cu Sc Ac As]
+18.9 +11.5 62 +19 +20 1027.0 980.3
15 21.08 С 6 35 км 9/4 900 м
[Cu Sc Ac As]
+19.9 +11.1 57 +21 +22 комфорт 1026.7 980.1
16 21.08 С 7 35 км 9/3 1350 м
[Sc Ac As]
+18.7 +11.0 61 +19 +19 1026.9 980.1
17 21.08 С 5 35 км 9/1 870 м
[Sc Ac As Cc]
+18.0 +10.9 63 +18 +18 1027.2 980.3
18 21.08 С 4 35 км 5/0
[Ac trans Ci fib]
+16.8 +10.0 64 +16 +16 1027.5 980.4 +20.2
19 21.08 С 4 30 км 3/0
[Ac trans Ci fib]
+15.7 +10.2 70 +15 +15 1027.9 980.6
20 21.08 С 4 30 км ясно +13.9 +10.1 78 +12 +12 1028.2 980.6
21 21.08 С 3 30 км н/о +13.6 +10.5 82 +12 +12 1028.6 980.9
22 21.08 С 5 30 км н/о +13.3 +10.9 85 +11 +11 1028.6 980.9
23 21.08 С 4 27 км н/о +12.6 +10.5 87 +11 +11 1028.4 980.6
00 22.08 С 5 26 км н/о +12.1 +10.4 89 +10 +10 1028.3 980.4
01 22.08 С 5 27 км н/о +11.8 +10.1 89 +9 +9 1027.8 979.9
02 22.08 С 7 30 км н/о +12.5 +9.9 84 +10 +10 1027.5 979.7
03 22.08 С 6 28 км н/о +11.9 +9.8 87 +9 +9 1027.3 979.4
04 22.08 С 7 27 км н/о +12.5 +9.8 84 +10 +10 1026.7 978.9
05 22.08 С 5 25 км 9/0
[Ac trans Ci fib]
+13.0 +10.4 84 +11 +11 1026.8 979.1
06 22.08 С 6 25 км 8/0
[Ac trans Ci fib]
+14.8 +11.0 78 +13 +14 1026.4 979.0 +11.7
07 22.08 СВ 9 30 км 8/1 750 м
[Cu hum Ac trans Ci fib]
+16.6 +11.3 71 +15 +15 1025.9 978.9
08 22.08 В 7
{11}
30 км 6/1 840 м
[Cu hum Ac trans Ci fib]
+17.8 +11.1 65 +17 +18 1025.9 979.0
09 22.08 СВ 8
{11}
30 км 8/1 900 м
[Sc Ac trans Ci fib]
+19.7 +11.7 60 +21 +22 комфорт 1025.1 978.6
10 22.08 В 6 30 км 9/3 930 м
[Sc Ac trans Ci fib]
+20.2 +11.9 59 +22 +24 комфорт 1025.2 978.8
11 22.08 В 5 30 км 9/8 1020 м
[Sc Ac trans]
+20.5 +11.7 57 +22 +23 комфорт 1025.2 978.8
12 22.08 В 5
{11}
30 км 9/6 960 м
[Sc As trans]
+20.4 +12.4 60 +22 +24 комфорт 1025.2 978.8
13 22.08 В 6 30 км 9/5 1200 м
[Cu Sc As trans]
+21.3 +12.7 58 +24 +25 комфорт 1024.6 978.4
14 22.08 В 5 30 км 9/3 1050 м
[Sc diur, vesp As trans]
+22.2 +13.3 57 +25 +26 комфорт 1024.1 978.0
15 22.08 В 4 30 км 9/6 900 м
[Cu Sc Ci fib]
+22.4 +13.2 56 +25 +26 комфорт 1024.0 978.0
16 22.08 В 4 30 км 9/8 960 м
[Cu Sc Ci fib]
+21.3 +13.0 59 +24 +24 комфорт 1024.1 977.9
17 22.08 В 4 30 км 9/8 1140 м
[Sc Ci fib]
+20.5 +13.2 63 +23 +23 комфорт 1024.1 977.8
18 22.08 В 2 28 км 9/9 1050 м
[Sc]
+19.7 +13.2 66 +22 +22 комфорт 1024.7 978.2 +23.2
19 22.08 СВ 5 30 км 4/1 1080 м
[Sc Ci fib]
+18.3 +12.7 70 +18 +18 1025.7 979.0
20 22.08 СВ 4 28 км 8/0
[Ci fib]
+17.5 +12.4 72 +17 +17 1026.2 979.3
21 22.08 С 4 28 км н/о +16.6 +12.0 74 +16 +16 1026.1 979.1
22 22.08 С 3 26 км н/о +16.1 +12.0 77 +16 +16 1026.2 979.1
23 22.08 С 4 24 км н/о +15.0 +11.9 82 +14 +14 1026.6 979.3
00 23.08 С 4 23 км н/о +14.8 +12.0 83 +14 +14 1026.5 979.2
01 23.08 С 4 16 км н/о +14.7 +11.8 83 +13 +13 1026.4 979.0
02 23.08 С 3 17 км н/о +13.1 +11.2 88 +12 +12 1026.7 979.1
03 23.08 С 3 18 км н/о +13.2 +11.3 88 +12 +12 1026.7 979.1
04 23.08 С 7 18 км н/о +13.6 +11.3 86 +11 +11 1026.7 979.1
05 23.08 С 7 20 км 1/0
[Ac trans Ci fib]
+14.0 +11.3 84 +12 +12 1026.8 979.3
06 23.08 С 3 25 км 1/0
[Ac trans Ci fib]
+16.2 +12.2 77 +16 +18 1026.7 979.6 +12.7
07 23.08 СВ 5 28 км 1/0
[Ac trans Ci fib]
+18.8 +13.0 69 +19 +22 1026.3 979.6
08 23.08 СВ 4 28 км 1/1 1000 м
[Cu hum Ci fib]
+20.0 +12.0 60 +22 +27 комфорт 1026.3 979.8
09 23.08 С 4 30 км 1/1 1170 м
[Cu hum]
+21.5 +11.8 54 +24 +30 комфорт 1025.8 979.5
10 23.08 С 4 30 км 1/1 1320 м
[Cu hum]
+22.7 +11.8 50 +25 +33 комфорт 1025.2 979.1
11 23.08 Ю 4 35 км 1/1 1500 м
[Cu hum]
+24.2 +11.9 46 +26 +34 жарко 1024.6 978.8
12 23.08 З 2 35 км 1/1 1500 м
[Cu hum]
+25.2 +11.7 43 +27 +38 жарко 1023.9 978.3
13 23.08 В 3 35 км 1/1 1500 м
[Cu hum]
+26.3 +12.7 43 +28 +36 жарко 1023.3 977.9
14 23.08 Ю 4 35 км 1/1 1500 м
[Cu hum]
+25.9 +12.4 43 +27 +32 жарко 1022.9 977.4
15 23.08 В 4 35 км 1/1 1500 м
[Cu hum]
+25.6 +12.8 45 +27 +30 жарко 1022.7 977.2
16 23.08 В 5 35 км 1/1 1500 м
[Cu hum]
+25.1 +13.3 48 +27 +28 жарко 1022.3 976.8
17 23.08 В 4 30 км 1/1 1500 м
[Cu hum]
+24.2 +13.7 52 +26 +27 жарко 1022.4 976.7
18 23.08 В 4 27 км 3/0
[Ac trans Ci fib]
+22.9 +13.9 57 +26 +26 жарко 1022.9 977.0 +27.5
19 23.08 В 3 25 км 4/0
[Ac trans]
+21.4 +14.3 64 +24 +24 комфорт 1023.7 977.6
20 23.08 В 4 20 км 4/0
[Ci fib]
+20.3 +15.1 72 +23 +23 комфорт 1024.0 977.7
21 23.08 СВ 4 19 км н/о +19.2 +15.0 77 +21 +21 комфорт 1023.8 977.3
22 23.08 СВ 4 19 км н/о +19.1 +15.0 77 +20 +20 1023.5 977.0
23 23.08 В 3 19 км н/о +18.4 +14.8 80 +19 +19 1023.5 976.9
00 24.08 С 4 18 км {дымка} н/о +17.8 +14.6 82 +18 +18 1023.3 976.6
01 24.08 СВ 3 18 км н/о +17.2 +14.4 84 +17 +17 1023.4 976.6
02 24.08 СВ 3 18 км н/о +17.2 +14.5 84 +17 +17 1023.3 976.5
03 24.08 СВ 3 17 км н/о +16.4 +14.0 86 +16 +16 1023.3 976.4
04 24.08 В 2 18 км н/о +16.8 +14.3 85 +17 +17 1023.2 976.4
05 24.08 В 3 18 км 4/0
[Ci fib]
+17.2 +14.7 85 +17 +17 1023.3 976.5
06 24.08 В 5 18 км 6/0
[Ci fib]
+19.0 +15.1 78 +20 +21 1022.9 976.4 +16.1
07 24.08 В 5 18 км 6/0
[Ci sp]
+21.1 +16.1 73 +24 +27 комфорт 1022.3 976.2
08 24.08 В 4 22 км 8/6 1200 м
[Sc Ci sp]
+22.7 +16.3 67 +27 +29 душно 1022.1 976.3
09 24.08 В 5 22 км 8/1 1200 м
[Sc Ci sp]
+25.0 +17.0 61 +29 +33 душно 1021.6 976.1
10 24.08 В 7 25 км 8/3 1200 м
[Sc Ci sp]
+25.7 +16.3 56 +29 +31 душно 1021.3 975.9
11 24.08 В 6 22 км 8/4 1170 м
[Cu med, cong Ci sp]
+27.1 +17.0 54 +31 +34 душно 1020.7 975.6
12 24.08 В 6 22 км 8/6 1200 м
[Cu med, cong Ci sp]
+27.3 +16.9 53 +31 +33 душно 1020.3 975.2
13 24.08 ЮВ 6 28 км 8/6 1230 м
[Cu med, cong Ci sp]
+28.1 +16.4 49 +32 +33 душно 1019.6 974.7
14 24.08 ЮВ 6 25 км 8/5 1300 м
[Cu med, cong Ci sp]
+29.2 +15.3 43 +32 +33 душно 1019.0 974.2
15 24.08 В 6 25 км 8/5 1500 м
[Cu med, cong Ci sp]
+28.1 +15.4 46 +31 +32 душно 1018.9 974.0
16 24.08 В 4 22 км 8/5 1500 м
[Cu med, cong Ci sp]
+27.0 +15.7 50 +30 +31 душно 1018.9 973.8
17 24.08 В 5 19 км 8/6 1500 м
[Cb calv Ci sp]
+26.2 +16.7 56 +30 +30 душно 1019.4 974.2
18 24.08 ЮЗ 4 17 км 9/4 1350 м
[Cb calv Ac lent Cs]
+23.9 +15.7 60 +27 +27 жарко 1020.4 974.8 +30.1
19 24.08 В 4 20 км 9/5 1410 м
[Cu med, cong Ci sp]
+22.7 +15.3 63 +27 +27 душно 1020.2 974.4
20 24.08 В 5 20 км 6/3 1500 м
[Cu med, cong Ci sp]
+22.7 +16.3 67 +27 +27 душно 1020.2 974.4
21 24.08 СВ 6 20 км н/о +21.7 +16.3 71 +25 +25 комфорт 1020.5 974.6
22 24.08 СВ 5 22 км н/о +21.3 +15.6 70 +25 +25 комфорт 1020.4 974.4
23 24.08 В 4 21 км н/о +20.2 +15.0 72 +23 +23 комфорт 1020.7 974.5
00 25.08 В 7 20 км н/о +19.8 +15.2 75 +21 +21 комфорт 1019.8 973.6
01 25.08 В 6 20 км н/о +19.1 +15.1 78 +20 +20 1020.1 973.8
02 25.08 В 4 19 км н/о +18.7 +15.3 81 +20 +20 1021.1 974.7
03 25.08 В 7 20 км слаб. ливневой дождь н/о +18.8 +15.2 80 +19 +19 1021.5 975.1
04 25.08 В 4 24 км в посл. час дождь {ливн. осадки} н/о +18.7 +14.9 79 +20 +20 1021.3 974.9
05 25.08 В 6 25 км 8/0
[Ac trans]
+17.9 +15.2 84 +17 +17 1021.2 974.6
06 25.08 В 5 25 км 9/0
[Ac trans]
+18.8 +15.7 82 +20 +20 1020.7 974.3 +17.7 0.0
07 25.08 В 4 22 км 9/0
[Ac trans]
+20.7 +15.5 72 +24 +25 комфорт 1021.1 975.0
08 25.08 ЮВ 7 30 км 8/0
[Ac trans]
+23.0 +14.6 59 +27 +28 душно 1021.2 975.4
09 25.08 В 6 30 км 8/1 700 м
[Cu hum Ac trans Ci sp]
+21.7 +15.5 68 +25 +27 комфорт 1021.3 975.3
10 25.08 В 2 30 км 8/0
[Ac trans Ci sp]
+22.4 +15.3 64 +26 +35 жарко 1020.6 974.8
11 25.08 В 5 30 км 8/0
[Ac trans Ci sp]
+23.9 +15.7 60 +27 +32 жарко 1020.4 974.8
12 25.08 ЮВ 7 30 км 8/0
[Ac trans Ci sp]
+25.2 +14.9 53 +28 +30 жарко 1020.1 974.7
13 25.08 ЮВ 7 30 км 8/1 900 м
[Cu med, cong Ac trans]
+24.2 +13.7 52 +26 +28 жарко 1020.3 974.7
14 25.08 ЮВ 5 30 км 8/1 1000 м
[Cu med, cong Ac trans]
+25.1 +14.9 53 +28 +30 жарко 1019.7 974.3
15 25.08 В 4 30 км 6/0
[Ac trans]
+26.3 +14.4 48 +29 +31 жарко 1018.8 973.6
16 25.08 В 3 30 км 6/0
[Ac trans]
+24.6 +14.1 52 +27 +28 жарко 1019.1 973.6
17 25.08 В 2 30 км 6/0
[Ac trans Ci fib]
+23.7 +14.1 55 +26 +26 жарко 1019.4 973.8
18 25.08 В 2 30 км 6/0
[Ac trans Ci fib]
+22.5 +14.4 60 +26 +26 жарко 1020.1 974.3 +26.6

 

Местоположение метеостанции АЭС Дукованы (Чехия): широта 49.10 долгота 16.13 высота над уровнем моря 405 м.

В архиве по умолчанию представлена погода на АЭС Дукованы за последнюю неделю. Архивные данные за месяц целиком и за предыдущие месяцы, начиная с января 2011 года, Вы можете получить, выбрав интересующий диапазон дат из раскрывающегося списка и нажав кнопку "Ввод!".


*Определитесь, кто Вы:
робот инопланетянин человек

Внимание! Время в таблицах - всемирное. Для получения местного времени необходимо прибавить поправку, которая равна 1 ч.

Смотрите также архив погоды в соседних городах и на ближайших метеорологических станциях:

Погода в Замке Namest nad Oslav (Чехия) (8 км)
Погода в Кучарловице (Чехия) (25 км)
Погода в Реце (Австрия) (39 км)
Погода в Брно (Чехия) (42 км)
Погода в Церкви Мыслова (Чехия) (49 км)
Погода в Пршибиславе (Чехия) (59 км)
Погода в Пойсдорфе (Австрия) (60 км)
Погода в Лейзер Берге (Австрия) (62 км)
Погода в Гарс-ам-Кампе (Австрия) (67 км)
Погода в Мистельбахе (Австрия) (68 км)

Пояснения к столбцам:

Ветер - указаны скорость ветра в м/с - средняя за 10 мин, порывы в срок и между сроками (в фигурных скобках) и направление, откуда дует ветер: С - северный, СВ - северо-восточный, В - восточный, ЮВ - юго-восточный, Ю - южный, ЮЗ - юго-западный, З - западный, СЗ - северо-западный.
Видимость - горизонтальная дальность видимости в метрах или километрах. При видимости от 1 до 10 км при отсутствии осадков обычно наблюдается дымка, при ухудшении видимости до 1 км и менее - туман. В сухую погоду видимость может ухудшаться дымом, пылью или мглою.
Явления - указаны атмосферные явления, наблюдавшиеся в срок или в последний час перед сроком; фигурными скобками обозначены явления, наблюдавшиеся между сроками (за 1-3 часа до срока); квадратными скобками обозначены град или гололедные отложения с указанием их диаметра в мм.
Облачность - указаны через наклонную черту общая и нижняя облачность в баллах и высота нижней границы облаков в метрах; квадратными скобками обозначены формы облаков: Ci - перистые, Cs - перисто-слоистые, Cc - перисто-кучевые, Ac - высококучевые, As - высокослоистые, Sc - слоисто-кучевые, Ns - слоисто-дождевые, Cu - кучевые, Cb - кучево-дождевые. Подробнее классификацию облаков см. в Атласе облаков (PDF).
T - Температура воздуха - температура, измеренная на высоте 2 м над землей.
Td - Температура точки росы - температура, при понижении до которой содержащийся в воздухе водяной пар достигнет насыщения.
f - Относительная влажность воздуха - влажноcть воздуха, измеренная на высоте 2 м над землей.
Te - Эффективная температура - температура, которую ощущает одетый по сезону человек в тени. Характеристика душности погоды. При расчете учитывается влияние влажности воздуха и скорости ветра на теплоощущения человека.
Tes - Эффективная температура на солнце - температура, которую ощущает человек, с поправкой на солнечный нагрев. Характеристика знойности погоды. Зависит от высоты солнца над горизонтом, облачности и скорости ветра. Ночью, в пасмурную погоду, а также при ветре 12 м/с и более поправка равна нулю.
P - Атмосферное давление - приведенное к уровню моря атмосферное давление.
Po - Атмосферное давление - измеренное на уровне метеостанции атмосферное давление.
Tmin - Минимальная температура - минимум температуры воздуха на высоте 2 м над землей.
Tmax - Максимальная температура - максимум температуры воздуха на высоте 2 м над землей.
R - Количество осадков - Количество выпавших осадков за период времени, мм. При наведении курсора мыши на число - период времени, за который выпало указанное количество осадков.
R24 - Количество осадков - Количество выпавших осадков за 24 часа, мм.
S - Снежный покров - Высота снежного покрова, см. При наведении курсора мыши на число - состояние снежного покрова и степень покрытия местности в баллах.